Date,TemperatureHighF,TemperatureAvgF,TemperatureLowF,DewpointHighF,DewpointAvgF,DewpointLowF,HumidityHigh,HumidityAvg,HumidityLow,PressureMaxIn,PressureMinIn,WindSpeedMaxMPH,WindSpeedAvgMPH,GustSpeedMaxMPH,PrecipitationSumIn
2013-1-1,32.9,28.4,17.1,28.8,21.9,8.9,88,77,62,30.15,29.82,4,0,8,0.00
2013-1-2,26.8,17.5,9.0,15.0,8.7,1.8,76,68,53,30.25,30.11,2,0,4,0.00
2013-1-3,33.4,21.0,7.0,19.9,10.8,-0.9,75,65,45,30.26,30.14,6,1,10,0.00
2013-1-4,34.5,28.5,21.0,21.2,17.7,12.0,73,64,54,30.31,30.21,8,2,13,0.00
2013-1-5,41.0,28.7,14.4,26.9,18.9,7.6,79,67,53,30.38,30.12,4,0,5,0.00
2013-1-6,38.3,33.8,27.1,30.2,25.5,19.0,81,71,66,30.29,29.96,8,2,12,0.00
2013-1-7,39.4,30.9,24.6,27.5,22.1,17.6,78,70,53,30.46,30.24,3,1,6,0.00
2013-1-8,48.7,33.0,20.8,33.2,23.8,15.1,78,69,53,30.31,30.21,3,0,5,0.00
2013-1-9,50.4,39.9,29.0,40.5,32.9,23.5,93,76,64,30.50,30.16,5,1,8,0.04
2013-1-10,40.4,33.9,25.4,32.6,29.3,23.9,97,84,72,30.55,30.16,5,0,0,0.00
2013-1-11,60.1,50.9,40.4,54.2,46.3,32.1,95,85,71,30.16,29.88,9,1,0,0.32
2013-1-12,65.1,58.9,48.9,60.6,56.0,47.3,97,90,76,30.01,29.81,9,1,0,0.00
2013-1-13,64.8,58.3,39.0,60.7,55.1,37.2,97,89,77,30.02,29.73,20,3,20,0.36
2013-1-14,39.0,30.4,25.4,37.2,25.8,22.0,94,83,72,30.40,30.02,10,2,0,0.00
2013-1-15,32.9,28.5,23.2,24.9,22.9,20.4,90,80,68,30.39,30.07,10,1,0,0.00
2013-1-16,35.3,32.4,31.0,29.5,27.1,24.2,92,81,74,30.08,29.93,8,1,7,0.00
2013-1-17,38.2,33.1,26.2,30.4,27.4,17.4,89,80,67,30.32,30.06,13,1,16,0.00
2013-1-18,34.7,26.8,14.5,24.6,17.6,11.7,93,69,53,30.52,30.23,10,2,14,0.00
2013-1-19,53.7,44.0,34.7,29.0,24.9,21.9,63,48,30,30.23,29.83,18,4,19,0.00
2013-1-20,44.5,32.5,23.9,32.4,17.6,11.9,66,54,38,30.16,29.82,24,5,26,0.00
2013-1-21,24.2,20.0,10.3,17.4,9.9,-2.0,79,64,54,30.19,30.01,23,4,23,0.00
2013-1-22,15.2,10.5,6.1,0.2,-2.0,-3.7,66,56,46,30.35,30.18,18,4,18,0.00
2013-1-23,20.9,15.1,9.3,14.6,4.5,-0.6,89,64,42,30.35,30.13,11,1,9,0.00
2013-1-24,21.2,16.5,12.8,14.9,9.8,6.0,90,75,60,30.61,30.13,19,2,19,0.00
2013-1-25,24.2,19.1,15.9,20.2,12.8,6.3,91,76,62,30.53,30.07,9,0,0,0.00
2013-1-26,28.6,25.0,16.0,22.7,19.1,11.7,90,78,65,30.50,30.15,10,1,0,0.00
2013-1-27,35.2,24.9,12.1,29.3,17.7,9.2,91,75,57,30.54,30.27,9,1,0,0.11
2013-1-28,49.9,43.2,31.6,49.2,41.9,29.3,98,95,91,30.27,30.03,10,1,0,0.51
2013-1-29,69.3,59.0,49.7,56.5,52.9,49.1,99,81,61,30.07,29.65,14,3,14,0.00
2013-1-30,65.8,56.1,33.7,57.8,50.3,28.9,95,81,69,29.65,29.22,26,5,26,0.41
2013-1-31,34.4,26.3,19.7,29.0,19.6,11.0,93,76,57,29.95,29.42,27,7,27,0.01
2013-2-1,19.5,12.2,7.4,15.2,4.7,0.7,87,72,62,30.42,29.95,19,3,19,0.00
2013-2-2,26.6,20.0,7.2,24.9,16.4,4.2,94,86,74,30.40,30.03,9,1,0,0.00
2013-2-3,26.1,22.2,19.6,23.0,17.8,11.4,94,83,68,30.14,29.93,16,2,16,0.00
2013-2-4,30.1,22.9,11.4,29.0,19.3,9.5,96,86,59,30.15,29.88,9,0,0,0.00
2013-2-5,32.4,29.4,27.1,29.1,26.2,23.8,96,88,76,30.01,29.89,11,1,0,0.00
2013-2-6,36.9,31.0,22.8,29.4,23.8,18.6,87,75,53,30.33,30.01,11,1,0,0.04
2013-2-7,50.0,36.6,23.1,33.9,27.9,18.9,85,72,50,30.29,29.85,9,1,0,0.10
2013-2-8,46.1,35.1,26.5,40.5,29.4,18.3,94,80,70,30.32,29.78,22,4,22,0.14
2013-2-9,37.4,27.6,17.1,21.2,18.8,15.2,94,70,47,30.47,30.31,15,1,15,0.00
2013-2-10,48.7,38.6,25.9,41.3,26.4,18.8,79,63,44,30.31,29.86,13,1,13,0.01
2013-2-11,53.9,46.7,39.1,47.5,36.2,24.9,92,68,44,30.00,29.76,27,6,27,0.00
2013-2-12,46.9,37.0,29.2,28.5,26.0,24.0,84,65,45,30.13,29.93,24,3,24,0.00
2013-2-13,32.9,29.5,23.3,30.0,26.5,22.1,96,89,83,29.93,29.76,6,0,0,0.00
2013-2-14,46.3,34.6,21.7,38.8,31.5,20.5,97,89,74,29.99,29.85,18,2,18,0.11
2013-2-15,37.2,31.9,26.9,31.6,28.4,23.8,95,87,75,30.14,29.98,15,1,15,0.01
2013-2-16,38.8,23.4,15.2,24.3,17.4,9.6,95,78,41,30.13,30.00,14,2,14,0.05
2013-2-17,25.4,17.9,12.6,12.1,8.9,4.5,82,68,49,30.26,30.09,11,2,12,0.00
2013-2-18,51.1,34.0,14.5,33.1,20.8,9.4,81,60,45,30.27,29.76,20,2,20,0.02
2013-2-19,49.4,32.6,21.8,38.5,26.7,13.3,94,79,48,30.04,29.63,25,5,25,0.18
2013-2-20,22.6,20.7,17.1,16.0,12.1,8.7,80,69,58,30.29,30.04,21,4,21,0.01
2013-2-21,28.0,24.0,20.8,18.7,16.3,12.7,81,72,66,30.36,30.21,9,1,0,0.00
2013-2-22,41.8,33.7,25.8,39.5,30.0,17.9,97,86,72,30.20,29.92,13,1,13,0.10
2013-2-23,41.2,35.8,30.2,33.1,29.0,24.8,91,77,57,29.97,29.86,10,1,0,0.00
2013-2-24,33.5,30.0,26.9,25.3,22.0,20.4,84,72,60,30.15,29.90,12,2,12,0.00
2013-2-25,43.6,33.2,20.6,27.2,23.3,18.1,94,68,46,30.20,29.97,9,0,0,0.00
2013-2-26,42.9,37.7,34.1,41.6,32.7,23.3,97,83,60,29.97,29.43,13,2,13,0.75
2013-2-27,42.9,37.6,32.8,41.3,35.3,30.5,95,91,84,29.67,29.46,15,2,15,0.16
2013-2-28,36.7,33.7,31.2,34.1,31.4,29.3,95,91,85,29.89,29.63,12,2,12,0.07
2013-3-1,33.3,31.3,27.6,30.7,25.7,20.2,90,80,68,30.02,29.88,11,2,0,0.01
2013-3-2,30.2,27.1,25.7,23.8,22.2,19.8,90,81,70,30.04,29.98,10,2,0,0.00
2013-3-3,30.0,25.9,23.2,21.4,18.9,16.1,88,75,58,30.06,29.99,9,2,0,0.00
2013-3-4,40.4,28.2,15.5,22.3,17.9,13.0,94,68,40,30.17,30.04,9,0,0,0.01
2013-3-5,40.6,35.2,30.6,31.2,26.9,21.1,94,73,57,30.08,29.50,12,1,12,0.12
2013-3-6,39.5,35.0,32.7,34.1,31.4,28.1,95,87,77,30.18,29.50,10,2,0,0.70
2013-3-7,40.4,35.3,31.7,30.5,28.5,27.1,85,76,61,30.33,30.17,12,2,12,0.20
2013-3-8,45.4,35.5,27.3,29.8,26.7,23.8,88,71,50,30.45,30.32,12,1,12,0.02
2013-3-9,56.0,38.4,26.9,35.5,29.0,24.3,91,71,42,30.38,30.05,13,1,13,0.00
2013-3-10,71.3,57.5,47.3,38.6,34.1,29.5,57,43,25,30.05,29.81,11,1,12,0.00
2013-3-11,61.6,52.2,41.7,51.4,42.6,35.7,93,72,39,29.83,29.53,19,3,20,0.33
2013-3-12,41.7,36.7,33.3,36.2,31.1,27.8,93,80,67,29.99,29.76,12,2,12,0.00
2013-3-13,33.2,30.4,27.9,31.4,23.8,17.4,95,77,56,30.24,29.94,18,4,19,0.01
2013-3-14,42.0,31.2,20.4,22.2,18.9,16.3,86,62,41,30.31,30.13,14,2,15,0.00
2013-3-15,49.8,37.9,26.1,40.9,30.4,21.0,94,75,59,30.14,29.83,10,1,0,0.06
2013-3-16,54.7,42.5,32.2,48.4,39.4,28.6,97,89,75,29.99,29.57,16,2,16,0.19
2013-3-17,38.9,34.4,31.8,28.9,27.1,24.6,87,75,60,30.15,29.99,9,1,0,0.00
2013-3-18,49.6,40.1,31.6,48.8,38.0,26.0,97,93,75,30.05,29.58,19,2,19,1.39
2013-3-19,41.5,35.8,29.8,36.4,24.2,16.1,83,64,41,30.02,29.75,25,5,25,0.00
2013-3-20,38.0,31.2,23.8,21.5,17.1,11.2,74,56,44,30.01,29.89,21,4,21,0.00
2013-3-21,30.7,24.6,18.9,20.4,15.0,10.9,83,67,50,29.99,29.91,14,3,14,0.00
2013-3-22,42.5,30.8,20.3,21.8,18.4,15.7,84,62,37,30.04,29.97,13,2,13,0.00
2013-3-23,48.7,34.6,22.2,26.3,22.0,18.4,90,63,33,30.06,29.93,12,1,12,0.00
2013-3-24,36.4,33.3,30.8,31.3,26.0,21.1,94,75,55,29.95,29.40,13,2,13,0.01
2013-3-25,34.6,32.9,31.8,33.0,31.2,30.2,97,94,88,29.84,29.38,11,1,0,0.24
2013-3-26,41.7,35.9,32.3,33.5,29.0,21.5,94,77,49,30.14,29.84,14,3,14,0.25
2013-3-27,42.4,37.4,32.9,30.7,26.7,21.1,88,66,43,30.23,30.14,15,4,15,0.00
2013-3-28,48.9,38.7,27.9,28.6,25.4,22.4,81,60,42,30.28,30.22,15,2,15,0.00
2013-3-29,52.9,39.3,26.0,33.1,27.5,23.3,92,66,40,30.29,30.17,11,1,0,0.00
2013-3-30,58.6,42.6,26.1,34.5,27.4,23.0,94,60,28,30.23,29.93,9,0,0,0.00
2013-3-31,54.7,46.2,41.0,46.8,39.4,27.7,95,78,55,29.93,29.70,10,1,0,0.05
2013-4-1,47.6,40.6,33.3,40.4,25.0,14.6,84,55,36,30.07,29.71,15,4,15,0.00
2013-4-2,44.1,33.6,21.8,19.5,16.4,13.1,76,50,32,30.23,30.07,16,2,16,0.00
2013-4-3,46.8,34.0,20.2,19.8,15.7,12.7,81,49,29,30.40,30.23,16,1,16,0.00
2013-4-4,53.7,39.5,28.4,26.4,18.0,14.0,64,44,23,30.37,29.96,9,1,0,0.00
2013-4-5,58.2,43.2,27.8,34.4,25.7,20.8,83,54,28,30.13,29.93,15,2,15,0.00
2013-4-6,61.8,46.1,30.3,24.3,20.7,16.1,63,39,19,30.24,29.90,12,2,12,0.00
2013-4-7,72.7,62.8,52.9,48.2,40.3,20.4,67,44,27,29.94,29.82,20,3,20,0.00
2013-4-8,72.6,62.4,49.9,53.1,50.2,45.1,88,66,46,29.94,29.82,16,2,16,0.00
2013-4-9,82.1,67.3,52.2,58.8,53.9,49.6,93,65,39,30.03,29.84,18,2,18,0.00
2013-4-10,83.0,70.4,59.5,64.2,59.0,55.1,90,68,50,29.89,29.72,24,2,25,0.00
2013-4-11,68.7,61.6,58.0,63.5,58.3,54.5,96,89,80,29.81,29.48,12,1,12,0.55
2013-4-12,59.6,48.9,42.7,58.6,43.8,33.4,97,83,67,29.86,29.42,18,3,18,0.27
2013-4-13,53.8,44.9,36.6,38.2,35.6,32.8,86,70,53,30.02,29.85,18,3,18,0.00
2013-4-14,67.3,50.1,34.2,43.4,37.7,31.9,93,66,38,30.10,29.89,11,1,0,0.00
2013-4-15,71.0,61.0,48.1,54.5,48.6,39.5,81,64,51,29.98,29.87,14,2,14,0.00
2013-4-16,78.8,63.5,56.1,66.0,56.5,50.3,97,79,56,30.12,29.92,18,2,18,0.81
2013-4-17,67.9,59.5,54.0,61.3,56.6,52.1,97,90,79,30.17,29.95,13,1,13,0.04
2013-4-18,86.5,71.4,58.4,64.8,57.9,53.1,95,67,33,29.98,29.58,18,3,18,0.00
2013-4-19,74.4,53.2,40.3,60.3,42.9,30.9,94,69,49,29.93,28.83,20,5,20,0.34
2013-4-20,47.1,40.3,33.1,33.1,28.8,24.1,92,65,43,30.42,29.93,19,3,19,0.04
2013-4-21,55.1,42.9,29.3,31.3,26.5,23.1,86,56,30,30.58,30.42,9,1,0,0.00
2013-4-22,70.2,54.4,40.0,43.5,34.2,24.2,60,47,30,30.42,30.16,10,1,0,0.00
2013-4-23,72.0,59.9,45.1,49.1,39.6,30.1,61,48,34,30.17,29.88,12,1,12,0.00
2013-4-24,63.5,52.2,34.3,55.4,45.1,32.8,96,78,54,30.19,29.74,23,3,23,0.64
2013-4-25,55.6,43.6,30.6,39.8,33.6,25.7,97,71,43,30.39,30.19,16,2,16,0.00
2013-4-26,62.4,47.3,30.2,39.5,32.7,28.0,93,62,31,30.49,30.36,10,0,0,0.00
2013-4-27,72.5,56.9,39.4,45.6,37.6,31.8,83,53,24,30.37,30.09,10,1,0,0.00
2013-4-28,62.8,57.2,53.3,59.0,53.8,45.1,97,89,65,30.09,29.82,10,1,0,0.72
2013-4-29,63.8,58.5,52.7,59.2,55.8,51.1,98,91,76,29.98,29.86,7,0,0,0.01
2013-4-30,77.8,62.4,47.3,59.3,53.4,46.5,98,75,46,30.07,29.97,9,1,0,0.00
2013-5-1,82.0,68.6,56.2,62.5,55.3,51.6,86,65,39,30.20,30.06,12,1,12,0.00
2013-5-2,76.1,66.4,55.9,58.2,53.3,48.2,81,64,49,30.24,30.09,12,1,12,0.00
2013-5-3,78.9,64.8,55.1,54.8,48.7,34.2,85,62,20,30.12,30.00,16,2,16,0.00
2013-5-4,71.8,66.7,57.7,49.6,44.7,39.7,55,45,41,30.06,29.96,16,2,16,0.00
2013-5-5,72.8,63.1,52.7,44.0,40.9,33.3,71,46,30,30.02,29.89,13,1,13,0.00
2013-5-6,68.3,60.6,56.0,58.1,49.2,35.3,94,68,38,29.97,29.92,8,0,0,0.04
2013-5-7,70.4,61.4,55.7,61.1,56.0,52.6,93,83,59,29.96,29.90,8,0,0,0.39
2013-5-8,75.7,63.0,55.4,57.5,54.1,51.4,90,74,44,29.96,29.89,8,0,0,0.01
2013-5-9,81.5,65.4,50.0,61.6,54.1,48.6,97,71,35,30.00,29.92,13,1,13,0.00
2013-5-10,73.4,63.6,58.9,64.1,59.9,55.5,97,88,70,29.95,29.78,24,2,24,1.23
2013-5-11,61.0,54.0,45.6,60.1,50.5,40.1,97,88,75,29.94,29.79,13,2,13,0.02
2013-5-12,54.0,45.6,35.4,40.5,33.9,28.6,97,66,43,30.12,29.94,19,2,19,0.00
2013-5-13,58.4,45.2,35.2,36.2,32.7,26.8,96,66,32,30.20,30.10,11,1,0,0.00
2013-5-14,77.0,57.6,38.5,56.0,43.7,33.3,84,63,38,30.16,29.81,20,2,20,0.00
2013-5-15,87.7,78.1,65.0,62.3,58.8,55.6,78,53,38,29.82,29.73,21,4,31,0.00
2013-5-16,78.7,68.5,62.4,65.1,61.7,55.2,97,80,50,29.95,29.77,16,1,16,0.22
2013-5-17,82.2,68.9,60.4,67.6,61.6,57.6,97,80,46,30.07,29.95,9,1,0,0.00
2013-5-18,82.2,69.1,59.9,68.1,60.7,55.5,91,76,56,30.07,29.95,9,0,0,0.02
2013-5-19,80.7,70.7,61.6,68.6,63.8,59.4,94,80,60,30.00,29.88,11,1,0,0.00
2013-5-20,88.0,74.4,63.7,73.4,66.8,62.3,97,79,52,29.99,29.85,16,2,16,0.00
2013-5-21,87.3,75.9,68.3,69.4,66.2,62.1,95,74,45,29.90,29.76,23,2,23,0.02
2013-5-22,80.7,72.1,63.8,67.2,62.6,59.5,94,73,55,29.82,29.70,18,2,18,0.21
2013-5-23,74.9,63.9,49.2,63.5,58.2,44.1,97,83,53,30.02,29.75,18,3,22,0.00
2013-5-24,60.3,50.3,43.5,44.5,39.4,36.0,85,68,44,30.32,30.02,16,2,16,0.00
2013-5-25,64.9,51.4,35.9,46.8,39.7,34.2,97,68,41,30.39,30.24,10,1,0,0.01
2013-5-26,72.0,56.0,39.3,42.3,37.4,29.3,94,56,25,30.33,30.20,9,0,0,0.00
2013-5-27,71.3,58.5,49.0,53.4,46.6,37.3,89,66,44,30.24,30.00,15,1,15,0.05
2013-5-28,84.6,73.7,61.4,66.3,60.7,53.4,83,65,45,30.02,29.91,24,3,24,0.00
2013-5-29,89.5,77.7,68.4,64.5,60.6,56.8,75,57,34,30.04,29.95,19,3,19,0.00
2013-5-30,90.7,77.5,64.9,69.0,63.6,60.1,91,65,39,30.13,29.99,16,2,16,0.00
2013-5-31,89.2,74.3,65.7,69.4,64.1,60.3,96,73,45,30.04,29.91,24,2,24,0.47
2013-6-1,83.9,74.4,65.5,70.3,66.8,64.3,97,79,56,29.95,29.74,26,4,26,0.54
2013-6-2,77.3,70.5,64.6,68.1,62.1,57.8,96,77,54,29.87,29.75,18,2,18,0.50
2013-6-3,68.3,62.5,54.4,59.6,54.6,46.9,85,76,59,30.05,29.87,9,1,0,0.00
2013-6-4,77.6,62.1,44.5,55.5,46.9,39.3,89,60,38,30.17,30.05,11,0,0,0.00
2013-6-5,84.2,69.2,55.0,62.2,54.1,45.6,76,60,40,30.10,29.85,8,0,0,0.00
2013-6-6,70.4,67.0,61.3,67.2,64.2,58.6,96,91,72,29.86,29.73,9,1,0,0.36
2013-6-7,71.6,61.5,56.4,60.0,56.4,53.4,95,84,63,29.88,29.78,10,1,0,0.00
2013-6-8,77.6,64.8,52.9,60.4,55.6,51.3,96,74,49,30.05,29.87,8,0,0,0.00
2013-6-9,84.3,73.1,64.5,67.5,62.1,58.1,87,70,44,30.08,29.91,12,1,12,0.01
2013-6-10,78.2,68.4,64.2,68.9,65.1,62.7,97,90,61,29.91,29.73,18,2,18,0.60
2013-6-11,84.4,72.0,61.7,67.5,63.8,60.5,98,78,50,29.92,29.80,12,1,12,0.00
2013-6-12,88.2,77.8,66.3,76.5,69.9,63.4,93,78,63,29.89,29.67,13,1,13,0.00
2013-6-13,80.5,70.0,62.4,72.5,62.3,54.0,97,79,50,29.85,29.51,20,2,20,0.96
2013-6-14,77.7,67.4,55.9,61.0,57.0,54.1,97,71,48,30.04,29.85,11,1,0,0.00
2013-6-15,80.3,67.8,52.2,64.2,57.8,50.7,98,73,45,30.11,29.95,9,1,0,0.00
2013-6-16,77.6,71.2,66.1,68.9,65.1,61.1,95,81,69,29.96,29.90,15,2,15,0.07
2013-6-17,85.5,74.0,65.4,72.1,67.4,63.2,96,81,55,29.95,29.84,12,1,12,0.00
2013-6-18,79.8,70.6,60.9,71.8,65.1,55.9,98,84,59,29.96,29.81,27,1,27,0.83
2013-6-19,81.8,66.7,52.6,60.4,52.9,43.4,96,65,28,30.12,29.96,8,0,0,0.00
2013-6-20,86.8,70.2,54.7,60.1,54.7,49.8,90,61,34,30.20,30.11,8,0,0,0.00
2013-6-21,89.9,74.2,58.1,66.0,60.0,55.3,92,64,37,30.21,30.10,12,1,12,0.00
2013-6-22,91.5,77.5,63.8,74.1,66.5,61.1,92,71,46,30.14,30.01,13,1,13,0.00
2013-6-23,90.7,77.8,65.1,73.4,66.7,61.8,96,71,44,30.11,29.99,15,1,15,0.00
2013-6-24,86.5,75.8,64.1,72.6,66.9,61.7,94,75,54,30.11,29.97,14,1,20,0.03
2013-6-25,90.2,79.3,68.0,77.1,70.2,64.7,93,75,55,30.03,29.83,15,2,19,0.00
2013-6-26,86.3,74.6,67.1,73.4,68.8,64.2,97,83,62,29.89,29.75,16,2,16,0.63
2013-6-27,83.3,73.5,66.5,74.1,63.9,-99.9,98,87,63,29.77,29.62,9,1,0,0.29
2013-6-28,82.4,74.0,64.8,69.4,65.3,57.6,93,76,50,29.64,29.50,10,1,18,0.00
2013-6-29,80.7,68.8,60.9,69.2,62.6,58.8,95,82,57,29.69,29.53,18,1,18,0.00
2013-6-30,80.9,68.8,63.3,72.6,64.7,61.4,96,88,63,29.85,29.67,11,0,0,0.19
2013-7-1,82.1,71.6,64.4,70.5,65.6,62.4,97,83,52,29.93,29.82,11,1,0,0.27
2013-7-2,82.8,73.0,66.6,71.5,67.4,64.5,95,83,64,30.03,29.90,12,1,12,0.00
2013-7-3,83.8,74.8,67.8,72.1,69.1,66.5,97,83,64,30.13,30.02,10,1,0,0.00
2013-7-4,75.8,71.8,69.9,71.4,69.1,67.7,97,92,79,30.18,30.10,12,1,12,0.22
2013-7-5,78.7,70.9,66.9,72.0,68.3,66.0,98,92,76,30.16,30.09,8,1,0,0.88
2013-7-6,84.4,74.5,68.9,75.0,69.7,66.2,98,86,67,30.15,30.01,16,2,22,0.01
2013-7-7,82.6,72.5,66.0,70.1,65.9,60.8,94,81,61,30.11,30.01,7,1,12,0.00
2013-7-8,79.8,70.4,63.3,75.5,67.7,61.9,98,92,78,30.14,30.04,10,1,13,0.91
2013-7-9,87.2,74.2,69.4,78.1,71.6,68.5,98,92,71,30.08,29.97,21,1,21,0.49
2013-7-10,88.8,75.9,65.5,80.7,72.7,64.3,98,90,69,30.00,29.80,34,2,34,0.07
2013-7-11,79.5,72.5,59.6,69.6,62.8,56.3,90,72,58,30.02,29.97,11,1,0,0.00
2013-7-12,79.7,68.7,57.5,66.8,60.4,55.4,95,76,54,30.10,30.02,9,1,0,0.00
2013-7-13,85.0,73.6,62.2,71.9,65.6,59.9,94,77,58,30.17,30.08,12,1,12,0.00
2013-7-14,89.1,79.0,70.0,75.8,70.8,66.6,90,77,60,30.24,30.16,12,1,12,0.00
2013-7-15,91.7,81.2,71.7,77.9,71.6,67.9,89,74,48,30.31,30.22,8,1,0,0.00
2013-7-16,93.0,81.2,70.5,79.2,72.6,69.0,97,77,52,30.32,30.23,5,0,0,0.00
2013-7-17,92.9,82.2,71.7,77.0,72.8,70.2,97,75,50,30.30,30.15,9,0,0,0.00
2013-7-18,93.1,82.1,71.8,78.2,73.3,70.2,96,76,51,30.18,30.01,10,1,0,0.00
2013-7-19,91.7,79.5,73.0,78.6,73.5,66.7,96,83,54,30.03,29.88,16,1,16,0.06
2013-7-20,78.1,73.4,69.6,75.5,70.8,67.4,97,92,83,29.93,29.84,11,1,0,0.58
2013-7-21,83.3,73.8,68.1,76.6,70.8,67.0,98,91,73,29.97,29.89,8,0,0,0.12
2013-7-22,73.8,71.6,69.1,71.8,70.0,68.2,98,95,91,29.93,29.76,9,0,0,1.94
2013-7-23,85.7,74.1,67.9,77.1,70.5,67.3,99,89,63,29.81,29.67,12,1,15,0.10
2013-7-24,76.0,69.3,61.0,67.7,60.8,54.3,93,76,52,30.00,29.78,12,1,12,0.00
2013-7-25,79.3,66.1,54.0,61.5,54.7,50.7,92,69,41,30.09,30.00,8,0,0,0.00
2013-7-26,81.7,68.3,54.2,65.0,58.6,52.8,97,74,48,30.10,29.98,10,1,0,0.00
2013-7-27,73.3,66.9,63.5,67.9,63.8,61.3,97,90,77,29.98,29.83,13,1,13,0.21
2013-7-28,73.2,63.6,54.4,61.6,55.4,50.0,98,77,50,30.06,29.87,12,1,14,0.00
2013-7-29,76.6,64.4,53.9,59.8,55.4,51.6,93,75,49,30.21,30.06,13,1,13,0.00
2013-7-30,79.5,67.7,55.7,64.6,59.2,54.3,98,76,51,30.25,30.14,7,0,0,0.00
2013-7-31,75.0,68.9,65.5,67.7,64.2,61.1,94,85,76,30.15,29.94,12,1,12,0.01
2013-8-1,81.4,71.9,65.8,68.4,64.1,56.7,97,79,46,29.95,29.89,8,1,0,0.10
2013-8-2,80.3,68.9,57.1,66.2,61.3,56.0,98,78,52,30.01,29.93,11,1,0,0.01
2013-8-3,81.6,69.6,62.2,70.6,64.6,59.8,98,85,51,30.01,29.96,10,0,0,0.31
2013-8-4,78.0,66.9,58.2,61.2,57.9,53.9,97,75,47,30.13,30.01,12,1,12,0.00
2013-8-5,76.6,64.2,52.0,63.3,56.8,50.9,98,79,51,30.15,30.00,7,0,0,0.00
2013-8-6,82.6,71.8,62.5,66.2,61.2,57.7,86,71,50,30.02,29.94,11,1,0,0.00
2013-8-7,86.5,75.3,65.9,76.0,68.9,62.6,92,81,63,29.95,29.87,11,1,0,0.00
2013-8-8,85.9,74.2,69.7,76.5,71.4,68.8,97,91,70,29.96,29.88,9,0,0,0.70
2013-8-9,81.2,71.9,66.0,71.0,67.6,62.9,98,88,56,30.03,29.89,8,0,0,0.17
2013-8-10,83.0,72.8,64.1,69.9,65.8,62.6,96,80,56,30.12,30.03,10,0,0,0.00
2013-8-11,84.8,72.9,63.7,73.3,67.1,62.5,98,83,61,30.10,30.01,9,1,0,0.00
2013-8-12,85.3,73.1,60.9,71.6,65.8,59.8,98,80,56,30.07,29.87,10,1,0,0.02
2013-8-13,77.6,69.3,56.8,69.1,61.8,51.1,97,79,50,30.03,29.82,14,1,14,0.00
2013-8-14,70.7,59.0,50.6,56.9,51.2,48.1,95,77,55,30.18,30.03,10,0,0,0.00
2013-8-15,76.5,61.6,47.9,58.5,52.3,46.8,98,75,45,30.21,30.11,10,1,0,0.00
2013-8-16,79.3,66.2,54.6,61.1,55.2,51.3,90,70,45,30.17,30.13,8,0,0,0.00
2013-8-17,81.8,69.5,60.1,66.2,59.0,54.1,83,70,47,30.21,30.15,9,0,0,0.00
2013-8-18,72.8,66.1,58.8,66.7,62.0,56.0,95,87,79,30.20,30.12,9,0,0,0.00
2013-8-19,83.3,71.1,61.7,67.9,63.3,58.8,97,79,48,30.15,30.07,8,0,0,0.00
2013-8-20,85.5,71.1,58.2,69.7,62.4,57.1,98,77,47,30.20,30.11,9,0,0,0.00
2013-8-21,83.3,71.4,63.3,73.2,65.5,61.4,95,82,62,30.18,30.06,8,0,0,0.00
2013-8-22,84.2,72.6,62.5,75.3,66.9,61.1,98,83,62,30.12,30.00,9,1,0,0.05
2013-8-23,85.2,74.3,67.5,71.1,66.2,56.8,97,78,50,30.15,30.02,9,1,0,0.31
2013-8-24,84.0,71.4,60.4,67.8,59.5,54.6,83,67,43,30.29,30.15,9,0,0,0.00
2013-8-25,85.4,71.3,57.7,67.2,60.6,55.8,96,71,42,30.36,30.22,11,1,0,0.00
2013-8-26,87.8,72.9,58.9,72.8,64.7,57.0,96,77,51,30.27,30.05,10,1,0,0.00
2013-8-27,86.2,75.5,68.0,75.7,70.9,66.5,95,86,69,30.06,29.93,10,0,12,0.00
2013-8-28,87.3,77.8,70.9,77.4,72.7,69.0,95,85,66,29.95,29.83,10,1,0,0.12
2013-8-29,84.8,74.0,66.9,74.1,69.4,65.7,98,86,65,30.04,29.94,8,0,0,0.00
2013-8-30,88.8,74.9,63.3,74.6,68.1,62.3,98,81,57,30.00,29.83,9,1,0,0.00
2013-8-31,86.0,75.2,68.8,75.6,70.5,66.2,97,86,66,29.85,29.76,14,2,14,0.34
2013-9-1,85.8,75.5,68.3,73.3,69.9,67.4,97,84,61,29.83,29.74,11,1,0,0.00
2013-9-2,83.8,74.4,67.5,74.7,69.0,61.3,97,84,65,29.87,29.76,11,1,0,0.02
2013-9-3,68.8,62.4,54.1,61.9,55.4,52.3,94,78,62,30.08,29.87,11,1,0,0.00
2013-9-4,82.2,64.3,49.2,65.1,56.2,48.1,98,78,45,30.16,30.07,10,1,0,0.00
2013-9-5,81.8,66.9,55.6,67.3,57.3,48.3,98,74,41,30.22,30.11,11,1,0,0.00
2013-9-6,77.2,61.3,46.5,54.7,49.0,41.9,97,68,30,30.27,30.13,9,0,0,0.00
2013-9-7,84.5,66.1,49.1,65.8,57.3,47.4,98,76,49,30.13,29.95,10,1,0,0.00
2013-9-8,84.0,73.6,65.9,71.3,66.4,62.7,94,79,63,30.02,29.94,12,0,12,0.00
2013-9-9,89.7,75.1,62.2,73.7,66.3,59.7,93,76,54,30.06,29.96,15,1,15,0.00
2013-9-10,94.0,81.9,72.3,77.0,72.4,68.5,89,74,54,30.10,30.02,13,2,13,0.00
2013-9-11,88.0,77.9,71.1,76.9,72.0,67.7,97,83,60,30.14,29.99,14,1,14,0.17
2013-9-12,76.2,71.0,63.5,71.5,67.8,60.4,97,90,69,30.00,29.83,13,1,13,0.41
2013-9-13,64.5,58.3,48.6,60.4,51.2,46.1,92,78,61,30.10,29.87,15,2,15,0.00
2013-9-14,70.2,54.2,41.1,50.9,45.4,39.9,98,75,43,30.21,30.10,9,0,0,0.00
2013-9-15,73.8,59.3,44.2,60.1,51.4,42.9,97,77,49,30.19,30.05,12,1,12,0.00
2013-9-16,71.5,61.7,55.1,59.7,55.2,50.3,97,81,51,30.31,30.10,10,1,0,0.11
2013-9-17,74.0,59.9,48.9,57.7,51.8,47.2,95,76,49,30.37,30.21,10,0,0,0.00
2013-9-18,75.2,63.1,55.4,64.8,57.6,51.7,94,83,67,30.22,30.08,9,1,0,0.00
2013-9-19,72.5,66.4,62.6,68.6,64.6,60.8,97,94,86,30.12,30.00,8,1,0,0.07
2013-9-20,85.6,73.0,64.8,73.6,67.4,64.0,98,84,60,30.03,29.79,11,1,13,0.01
2013-9-21,73.5,65.2,52.9,66.8,60.1,50.0,98,85,55,29.85,29.67,12,1,12,1.27
2013-9-22,66.3,55.5,48.1,51.5,47.6,45.1,96,77,50,30.05,29.85,10,1,0,0.00
2013-9-23,65.0,53.2,45.4,50.8,46.2,43.1,96,79,54,30.17,30.05,9,0,0,0.00
2013-9-24,70.6,53.8,40.1,53.1,46.8,38.8,98,79,48,30.15,29.97,9,0,0,0.00
2013-9-25,71.0,57.3,46.9,56.5,50.9,45.3,97,81,54,29.99,29.89,8,0,0,0.00
2013-9-26,79.7,62.6,49.2,57.5,51.1,46.3,98,71,33,30.10,29.94,8,0,0,0.00
2013-9-27,77.8,61.6,45.7,58.8,51.8,44.1,97,73,44,30.20,30.10,7,0,0,0.00
2013-9-28,78.9,63.5,50.0,59.6,54.0,48.3,97,74,45,30.22,30.09,10,0,0,0.00
2013-9-29,73.9,63.2,54.4,63.4,57.6,52.8,96,83,60,30.10,30.00,8,1,0,0.00
2013-9-30,72.4,64.4,59.2,63.4,59.7,57.3,95,85,67,30.05,29.96,9,0,0,0.01
2013-10-1,80.0,65.2,54.1,65.2,58.7,53.0,98,81,50,30.10,30.01,11,1,12,0.00
2013-10-2,81.0,67.5,56.2,68.3,62.3,54.8,98,85,61,30.13,30.03,8,0,0,0.00
2013-10-3,78.8,69.9,65.3,69.5,66.0,63.5,97,88,68,30.09,30.02,12,1,12,0.01
2013-10-4,84.0,68.7,60.6,69.2,64.9,59.4,98,89,53,30.10,30.01,10,1,0,0.27
2013-10-5,79.5,70.8,64.1,74.0,67.5,63.3,98,90,71,30.07,29.95,12,1,14,0.13
2013-10-6,78.5,68.4,52.2,69.4,64.7,50.9,98,89,65,29.95,29.69,14,2,20,1.73
2013-10-7,61.0,52.3,44.9,51.5,46.9,43.6,97,83,55,30.19,29.79,16,1,16,0.51
2013-10-8,66.9,52.3,39.7,50.6,44.8,38.7,98,78,46,30.32,30.18,11,0,0,0.00
2013-10-9,69.3,55.8,47.0,51.4,46.4,43.9,93,73,42,30.31,30.20,8,0,0,0.00
2013-10-10,72.5,56.8,44.1,54.6,46.9,41.7,94,72,43,30.22,30.09,7,0,0,0.00
2013-10-11,75.5,60.4,44.8,58.0,50.2,43.2,97,72,42,30.13,30.04,8,0,0,0.00
2013-10-12,71.6,61.5,52.6,61.3,56.6,51.3,97,85,69,30.15,30.06,8,0,0,0.00
2013-10-13,70.7,62.4,57.1,63.0,58.4,51.8,94,87,74,30.29,30.15,10,0,0,0.00
2013-10-14,69.2,58.1,46.6,54.5,50.9,44.9,97,78,56,30.34,30.22,9,0,0,0.00
2013-10-15,69.4,59.0,47.9,63.0,56.0,46.3,97,90,79,30.23,29.96,10,1,0,0.00
2013-10-16,65.9,62.9,54.9,62.7,59.8,48.8,96,90,78,29.97,29.86,14,1,14,0.06
2013-10-17,55.9,48.6,40.3,49.4,45.5,39.0,98,89,77,29.99,29.84,10,1,0,0.18
2013-10-18,62.7,50.1,39.2,49.8,43.4,38.2,98,80,51,30.08,29.97,14,1,15,0.00
2013-10-19,49.2,45.2,39.8,47.0,42.9,38.4,95,92,85,30.01,29.82,12,0,12,0.13
2013-10-20,59.9,46.9,35.9,44.5,39.9,34.9,97,79,52,30.07,30.01,16,2,18,0.00
2013-10-21,65.2,52.9,39.5,49.2,41.1,37.1,92,67,40,30.05,29.90,16,2,16,0.00
2013-10-22,54.2,43.2,33.1,49.4,34.5,28.6,93,73,48,30.06,29.91,12,1,12,0.14
2013-10-23,45.3,39.6,34.9,38.6,36.3,33.4,96,88,64,30.05,29.81,13,1,13,0.46
2013-10-24,44.1,37.7,31.5,35.9,32.2,27.2,96,81,57,30.26,30.04,14,1,14,0.00
2013-10-25,48.2,36.6,27.3,35.3,29.8,26.1,96,78,46,30.45,30.26,12,1,13,0.00
2013-10-26,47.3,40.0,32.3,36.9,30.5,27.0,83,70,50,30.32,29.96,18,2,18,0.00
2013-10-27,53.7,40.4,29.7,37.9,33.5,28.4,97,79,49,30.16,30.07,9,0,0,0.00
2013-10-28,58.9,43.5,30.0,40.3,35.2,28.7,97,76,44,30.34,30.14,8,0,0,0.00
2013-10-29,58.7,47.7,35.2,43.7,39.8,33.6,97,76,50,30.41,30.25,7,0,0,0.00
2013-10-30,63.4,55.5,48.8,57.9,50.0,40.6,96,82,71,30.26,30.05,12,1,12,0.00
2013-10-31,64.8,61.8,59.0,60.5,58.4,57.4,96,89,78,30.05,29.36,24,4,24,0.46
2013-11-1,63.1,55.8,49.9,61.8,49.0,45.2,96,79,60,29.74,29.32,34,3,34,0.50
2013-11-2,52.8,48.9,44.1,45.8,41.5,37.2,91,76,58,30.08,29.73,11,3,0,0.00
2013-11-3,52.2,43.7,37.4,41.3,37.4,32.5,96,80,51,30.45,30.07,7,0,0,0.01
2013-11-4,53.9,44.1,34.5,39.8,34.8,29.5,84,71,51,30.49,30.38,14,1,14,0.00
2013-11-5,61.6,52.5,45.8,44.6,40.7,38.3,76,65,49,30.47,30.28,9,1,0,0.00
2013-11-6,68.7,56.8,44.6,58.2,47.4,36.4,96,73,50,30.28,29.96,28,3,28,0.39
2013-11-7,51.1,42.4,33.6,48.8,34.9,26.6,94,76,50,30.22,29.99,15,3,16,0.18
2013-11-8,44.6,37.7,31.6,34.4,31.7,28.8,92,80,55,30.39,30.20,14,2,14,0.00
2013-11-9,58.7,45.8,34.1,36.1,32.3,29.0,87,62,39,30.31,30.03,23,3,23,0.00
2013-11-10,47.3,41.4,28.9,38.7,31.9,26.9,92,70,51,30.37,30.07,22,4,22,0.00
2013-11-11,48.6,39.3,27.2,42.2,33.5,25.4,95,81,58,30.35,30.10,18,2,18,0.04
2013-11-12,33.5,29.1,25.3,31.6,24.1,21.0,94,81,70,30.63,30.25,15,4,15,0.03
2013-11-13,36.7,28.5,19.0,23.7,20.6,17.1,94,73,50,30.66,30.44,12,2,0,0.00
2013-11-14,50.7,36.9,28.5,26.6,22.3,19.7,74,57,32,30.45,30.21,19,2,19,0.07
2013-11-15,52.2,44.4,32.1,41.6,28.7,22.5,79,55,38,30.23,30.14,14,2,14,0.00
2013-11-16,60.0,52.4,45.9,53.8,47.5,40.8,89,83,76,30.20,29.96,13,2,13,0.00
2013-11-17,60.9,58.1,51.3,58.8,54.0,41.2,96,87,59,29.97,29.50,25,6,25,0.92
2013-11-18,51.2,44.9,36.3,41.8,35.7,27.0,86,71,50,30.18,29.75,24,5,24,0.00
2013-11-19,40.8,35.3,28.4,28.3,26.7,25.0,88,71,57,30.42,30.18,10,2,0,0.00
2013-11-20,47.7,36.7,28.9,31.8,27.6,23.7,82,70,52,30.43,30.31,11,2,0,0.00
2013-11-21,56.2,46.8,37.8,45.6,38.1,28.8,92,72,59,30.40,30.24,10,1,0,0.09
2013-11-22,52.2,47.3,36.2,51.4,45.1,30.5,97,92,77,30.37,30.15,18,3,18,0.34
2013-11-23,36.1,30.3,20.9,30.8,23.4,9.0,92,76,54,30.55,30.31,19,4,19,0.00
2013-11-24,26.0,19.7,15.2,12.8,10.0,5.3,88,67,48,30.70,30.55,12,3,0,0.00
2013-11-25,35.9,26.3,14.8,28.3,16.8,12.0,89,69,43,30.60,30.26,14,2,14,0.00
2013-11-26,33.9,31.8,30.2,31.9,30.1,28.1,96,94,85,30.27,29.92,5,0,0,0.07
2013-11-27,30.7,27.4,24.0,28.8,21.6,14.4,94,80,56,30.29,29.90,16,4,16,0.00
2013-11-28,30.4,25.7,19.0,23.9,19.8,15.9,93,78,65,30.49,30.29,15,2,15,0.01
2013-11-29,35.3,27.5,17.6,23.6,21.1,15.4,93,77,58,30.69,30.49,5,0,0,0.00
2013-11-30,42.7,32.3,25.6,30.7,25.9,21.3,87,77,60,30.62,30.24,10,1,0,0.10
2013-12-1,45.2,37.7,29.2,35.8,31.2,26.0,89,78,64,30.24,30.00,10,1,0,0.16
2013-12-2,47.4,39.4,33.4,39.3,35.2,31.0,94,85,72,30.00,29.86,6,0,0,0.05
2013-12-3,53.4,43.2,34.8,46.3,40.1,33.5,96,89,75,29.93,29.86,8,1,0,0.01
2013-12-4,61.1,53.3,43.3,54.1,48.5,41.1,93,84,74,29.95,29.80,12,2,12,0.00
2013-12-5,64.3,51.6,33.4,59.7,47.7,31.0,97,87,74,30.15,29.80,16,4,16,0.50
2013-12-6,33.3,30.2,26.5,31.2,28.2,24.2,94,92,90,30.41,30.11,13,3,13,0.08
2013-12-7,26.5,23.1,16.9,24.2,17.5,13.0,91,79,65,30.66,30.40,12,2,0,0.00
2013-12-8,30.6,24.4,17.5,29.6,21.1,13.2,96,87,80,30.63,30.07,11,2,0,0.00
2013-12-9,33.6,30.9,25.7,32.8,27.6,19.9,97,87,78,30.26,30.03,16,4,16,0.07
2013-12-10,25.8,21.9,17.5,20.4,17.0,13.2,92,82,70,30.39,30.17,19,3,19,0.00
2013-12-11,31.9,21.4,11.5,22.7,16.1,9.1,91,80,66,30.54,30.33,18,3,18,0.05
2013-12-12,19.4,15.1,9.1,13.0,7.0,3.5,88,70,52,30.59,30.39,10,2,0,0.00
2013-12-13,34.1,25.4,12.6,28.4,17.4,7.6,89,71,58,30.39,30.25,10,1,0,0.01
2013-12-14,37.3,33.5,30.3,36.5,32.3,28.0,97,95,89,30.29,29.74,12,1,12,0.57
2013-12-15,33.6,26.2,23.5,32.5,21.8,14.9,96,84,67,30.15,29.81,18,6,18,0.02
2013-12-16,28.1,24.3,21.0,26.8,20.9,17.0,95,87,73,30.23,30.06,14,2,0,0.00
2013-12-17,32.6,28.6,26.6,30.9,25.6,23.1,96,88,80,30.18,30.02,15,3,14,0.02
2013-12-18,30.5,26.1,22.7,24.6,21.1,18.6,91,81,66,30.30,30.12,13,2,13,0.00
2013-12-19,49.7,41.1,28.8,39.7,30.3,19.6,76,65,58,30.15,30.01,12,2,12,0.36
2013-12-20,56.8,52.1,46.6,54.1,44.9,33.1,95,77,53,30.01,29.87,16,4,16,0.05
2013-12-21,67.2,58.8,55.5,61.5,57.2,53.8,97,94,80,29.87,29.49,25,4,25,0.93
2013-12-22,67.2,55.5,43.1,61.8,51.4,39.9,97,86,72,30.02,29.47,23,5,23,0.66
2013-12-23,42.9,33.7,28.0,40.0,27.9,19.8,94,79,69,30.39,30.01,13,4,0,0.06
2013-12-24,28.0,18.5,12.5,22.5,12.9,6.7,90,79,72,30.63,30.36,13,3,0,0.00
2013-12-25,31.7,23.6,12.1,26.1,16.3,9.3,90,74,49,30.60,30.24,12,2,12,0.00
2013-12-26,36.9,32.0,26.0,27.0,23.5,20.2,85,71,51,30.40,30.21,19,4,19,0.00
2013-12-27,44.3,34.8,27.1,31.7,27.3,22.1,84,74,60,30.45,30.32,11,2,0,0.00
2013-12-28,51.5,40.9,33.1,35.8,30.7,27.3,82,67,54,30.32,30.06,9,2,12,0.00
2013-12-29,41.1,38.6,33.2,40.0,35.1,28.6,97,88,63,30.07,29.79,11,2,15,0.49
2013-12-30,33.1,27.6,24.5,28.8,22.1,19.0,89,79,72,30.27,30.00,13,3,0,0.00
2013-12-31,27.7,24.3,21.5,20.1,18.3,15.2,88,78,67,30.40,30.18,15,3,15,0.00
2014-1-1,39.2,30.2,20.7,30.3,24.9,17.8,91,81,67,30.37,30.09,9,1,0,0.00
2014-1-2,30.5,23.1,11.4,26.4,19.9,7.2,93,87,81,30.23,29.82,19,4,19,0.00